This is the latest recevied weather packets stored in our database for station/object WC4PEM-1. If no packets are shown the sender has not sent any weather packets the latest 10 day(s).
| Time | Temp. | Humidity | Pressure | Rain* | Wind** | Luminosity | Snow |
|---|---|---|---|---|---|---|---|
| 1778006603 | 30° C | 46% | 1014.2 hPa | 0 mm | - | 944 W/m² | - |
| 1778006304 | 30° C | 46% | 1014.3 hPa | 0 mm | - | 1011 W/m² | - |
| 1778006109 | 30° C | 45% | 1014.3 hPa | 0 mm | - | 207 W/m² | - |
| 1778006003 | 30° C | 45% | 1014.3 hPa | 0 mm | - | 207 W/m² | - |
| 1778005703 | 30° C | 47% | 1014.3 hPa | 0 mm | - | 1069 W/m² | - |
| 1778005589 | 30° C | 48% | 1014.4 hPa | 0 mm | - | 1051 W/m² | - |
| 1778005537 | 30° C | 48% | 1014.4 hPa | 0 mm | - | 1051 W/m² | - |
| 1778005403 | 30° C | 48% | 1014.4 hPa | 0 mm | - | 1051 W/m² | - |
| 1778005103 | 29.44° C | 49% | 1014.5 hPa | 0 mm | - | 1007 W/m² | - |
| 1778004803 | 28.89° C | 53% | 1014.7 hPa | 0 mm | - | 1104 W/m² | - |
| 1778004503 | 28.33° C | 53% | 1014.6 hPa | 0 mm | - | 315 W/m² | - |
| 1778004204 | 27.78° C | 52% | 1014.7 hPa | 0 mm | - | 343 W/m² | - |
| 1778003903 | 28.33° C | 52% | 1014.8 hPa | 0 mm | - | 441 W/m² | - |
| 1778003880 | 27.78° C | 51% | 1014.7 hPa | 0 mm | - | 320 W/m² | - |
| 1778003604 | 27.78° C | 51% | 1014.7 hPa | 0 mm | - | 320 W/m² | - |
| 1778003468 | 28.33° C | 53% | 1014.8 hPa | 0 mm | - | 299 W/m² | - |
| 1778003303 | 28.33° C | 53% | 1014.8 hPa | 0 mm | - | 299 W/m² | - |
| 1778003216 | 28.89° C | 51% | 1015 hPa | 0 mm | - | 281 W/m² | - |
| 1778003004 | 28.33° C | 52% | 1015 hPa | 0 mm | - | 255 W/m² | - |
| 1778002704 | 28.89° C | 51% | 1015 hPa | 0 mm | - | 281 W/m² | - |
| 1778002544 | 29.44° C | 49% | 1015.2 hPa | 0 mm | - | 418 W/m² | - |
| 1778002505 | 28.89° C | 49% | 1015.1 hPa | 0 mm | - | 262 W/m² | - |
| 1778002404 | 28.89° C | 49% | 1015.1 hPa | 0 mm | - | 262 W/m² | - |
| 1778002204 | 28.89° C | 50% | 1015 hPa | 0 mm | - | 360 W/m² | - |
| 1778002104 | 28.89° C | 50% | 1015 hPa | 0 mm | - | 360 W/m² | - |
* Rain latest hour (hover to see other rain measurements)
** Current wind speed in m/s (hover to see current wind gust speed)